Date String (YYYY-MM-DD hh:mm:ss) UTC,Instrument flags,absolute air pressure of the measurement (hPa),sample flow rate (lpm),inlet stack bypass flow (lpm),air temperature of the measurement (°C),ambient temperature measured by the external sensor (°C),aerosol sample conditioner tube jacket temperature (°C),OPC LED temperature (°C),internal box temperature (°C),relative humidity of the measurement (%),span deviation,mass concentration of particles derived from Lorenz-Mie calculation of OPC scattering (μg/m³),mass concentration of particles derived from Lorenz-Mie calculation of OPC scattering (μg/m³),mass concentration of particles derived from Lorenz-Mie calculation of OPC scattering (μg/m³)
DateTimeUTC,F1_M11,P_M11,Q1_M11,Q2_M11,T1_M11,T2_M11,T3_M11,T4_M11,T5_M11,U1_M11,ZSPAN_M11,X2_M11,X0_M11,X1_M11
2023-06-15 01:00:00,SystemResetWarning,0824.5,5.00,000.00,029.6,028.0,000.0,038.1,031.3,25.5,0000.0,0003.59,0008.62,0003.10
2023-06-15 01:01:00,SystemResetWarning,0824.5,5.00,000.00,029.6,028.1,000.0,038.1,031.3,25.7,0000.0,0003.61,0008.86,0003.09
2023-06-15 01:02:00,SystemResetWarning,0824.5,5.00,000.00,029.7,028.1,000.0,038.1,031.4,27.4,0000.0,0003.62,0009.39,0003.10
2023-06-15 01:03:00,SystemResetWarning,0824.5,4.98,000.00,029.7,026.3,000.0,038.0,031.2,28.2,0000.0,0003.61,0009.16,0003.09
2023-06-15 01:04:00,SystemResetWarning,0824.5,5.00,000.00,029.6,025.1,000.0,038.0,031.2,27.7,0000.0,0003.59,0009.09,0003.10
2023-06-15 01:05:00,SystemResetWarning,0824.6,5.01,000.00,029.6,025.1,000.0,038.0,030.9,27.9,0000.0,0003.61,0009.18,0003.10
2023-06-15 01:06:00,SystemResetWarning,0824.7,5.01,000.00,029.5,025.5,000.0,038.0,030.9,27.5,0000.0,0003.57,0009.09,0003.09
2023-06-15 01:07:00,SystemResetWarning,0824.7,4.99,000.00,029.5,025.9,000.0,038.0,030.9,27.4,0000.0,0003.54,0008.60,0003.10
2023-06-15 01:08:00,SystemResetWarning,0824.7,5.00,000.00,029.4,026.3,000.0,038.0,030.9,27.3,0000.0,0003.59,0008.91,0003.12
2023-06-15 01:09:00,SystemResetWarning,0824.7,5.01,000.00,029.4,026.7,000.0,038.0,031.0,25.8,0000.0,0003.62,0009.02,0003.12
2023-06-15 01:10:00,SystemResetWarning,0824.7,5.00,000.00,029.5,027.0,000.0,038.0,031.0,24.5,0000.0,0003.61,0009.16,0003.13
2023-06-15 01:11:00,SystemResetWarning,0824.7,5.00,000.00,029.5,027.3,000.0,038.0,031.1,24.2,0000.0,0003.60,0009.05,0003.12
2023-06-15 01:12:00,SystemResetWarning,0824.7,4.99,000.00,029.5,027.5,000.0,038.0,031.1,24.6,0000.0,0003.58,0008.34,0003.11
2023-06-15 01:13:00,SystemResetWarning,0824.7,4.99,000.00,029.5,027.7,000.0,038.0,031.1,24.9,0000.0,0003.56,0007.87,0003.10
2023-06-15 01:14:00,SystemResetWarning,0824.7,5.02,000.00,029.5,027.9,000.0,038.0,031.2,24.3,0000.0,0003.55,0007.81,0003.10
2023-06-15 01:15:00,SystemResetWarning,0824.8,5.00,000.00,029.6,028.0,000.0,038.0,031.3,25.0,0000.0,0003.55,0007.96,0003.09
2023-06-15 01:16:00,SystemResetWarning,0824.8,4.99,000.00,029.6,028.1,000.0,038.1,031.3,25.7,0000.0,0003.53,0008.00,0003.09
2023-06-15 01:17:00,SystemResetWarning,0824.7,5.00,000.00,029.6,028.2,000.0,038.1,031.3,25.5,0000.0,0003.55,0008.84,0003.09
2023-06-15 01:18:00,SystemResetWarning,0824.7,5.00,000.00,029.7,028.3,000.0,038.1,031.4,25.5,0000.0,0003.59,0009.29,0003.07
2023-06-15 01:19:00,SystemResetWarning,0824.8,5.00,000.00,029.7,027.5,000.0,038.1,031.4,24.9,0000.0,0003.59,0009.06,0003.04
2023-06-15 01:20:00,SystemResetWarning,0824.7,5.00,000.00,029.7,025.6,000.0,038.0,031.2,24.8,0000.0,0003.56,0008.90,0003.04
2023-06-15 01:21:00,SystemResetWarning,0824.8,5.00,000.00,029.7,025.1,000.0,038.0,031.1,25.1,0000.0,0003.55,0008.60,0003.04
2023-06-15 01:22:00,SystemResetWarning,0824.7,5.01,000.00,029.5,025.3,000.0,038.0,030.8,25.9,0000.0,0003.59,0008.59,0003.08
2023-06-15 01:23:00,SystemResetWarning,0824.7,5.01,000.00,029.5,025.7,000.0,038.0,030.8,26.1,0000.0,0003.62,0008.66,0003.10
2023-06-15 01:24:00,SystemResetWarning,0824.7,5.00,000.00,029.4,026.1,000.0,038.0,030.8,26.1,0000.0,0003.62,0008.41,0003.11
2023-06-15 01:25:00,SystemResetWarning,0824.7,5.00,000.00,029.5,026.5,000.0,038.0,030.9,27.4,0000.0,0003.64,0008.36,0003.12
2023-06-15 01:26:00,SystemResetWarning,0824.8,4.98,000.00,029.5,026.9,000.0,038.0,030.9,28.9,0000.0,0003.67,0008.23,0003.13
2023-06-15 01:27:00,SystemResetWarning,0824.8,5.01,000.00,029.5,027.2,000.0,038.0,031.0,29.9,0000.0,0003.73,0008.26,0003.14
2023-06-15 01:28:00,SystemResetWarning,0824.8,5.02,000.00,029.5,027.4,000.0,038.0,031.1,30.0,0000.0,0003.73,0007.97,0003.15
2023-06-15 01:29:00,SystemResetWarning,0824.9,4.98,000.00,029.5,027.6,000.0,038.0,031.1,29.4,0000.0,0003.74,0007.52,0003.16
2023-06-15 01:30:00,SystemResetWarning,0824.9,5.01,000.00,029.5,027.8,000.0,038.0,031.2,27.9,0000.0,0003.76,0007.72,0003.17
2023-06-15 01:31:00,SystemResetWarning,0824.9,5.00,000.00,029.6,027.9,000.0,038.1,031.2,26.5,0000.0,0003.79,0007.92,0003.17
2023-06-15 01:32:00,SystemResetWarning,0824.9,4.99,000.00,029.6,028.1,000.0,038.1,031.3,25.4,0000.0,0003.79,0008.52,0003.18
2023-06-15 01:33:00,SystemResetWarning,0824.9,4.99,000.00,029.6,028.2,000.0,038.1,031.3,25.6,0000.0,0003.77,0008.79,0003.16
2023-06-15 01:34:00,SystemResetWarning,0824.9,5.00,000.00,029.7,028.3,000.0,038.1,031.3,24.9,0000.0,0003.74,0008.77,0003.15
2023-06-15 01:35:00,SystemResetWarning,0824.9,5.00,000.00,029.7,027.5,000.0,038.1,031.3,24.4,0000.0,0003.75,0008.84,0003.15
2023-06-15 01:36:00,SystemResetWarning,0824.9,5.01,000.00,029.7,025.5,000.0,038.0,031.2,23.7,0000.0,0003.79,0008.83,0003.15
2023-06-15 01:37:00,SystemResetWarning,0824.9,5.00,000.00,029.7,025.0,000.0,038.0,031.2,23.5,0000.0,0003.82,0008.90,0003.14
2023-06-15 01:38:00,SystemResetWarning,0825.0,5.01,000.00,029.5,025.2,000.0,038.0,030.9,23.6,0000.0,0003.76,0008.83,0003.14
2023-06-15 01:39:00,SystemResetWarning,0824.9,4.99,000.00,029.5,025.6,000.0,038.0,030.9,23.7,0000.0,0003.75,0008.46,0003.12
2023-06-15 01:40:00,SystemResetWarning,0825.0,4.99,000.00,029.5,026.0,000.0,038.0,030.9,23.7,0000.0,0003.76,0008.37,0003.11
2023-06-15 01:41:00,SystemResetWarning,0825.0,5.00,000.00,029.5,026.4,000.0,038.0,030.9,23.7,0000.0,0003.74,0008.32,0003.11
2023-06-15 01:42:00,SystemResetWarning,0825.1,5.01,000.00,029.5,026.8,000.0,038.0,031.0,23.8,0000.0,0003.72,0008.67,0003.10
2023-06-15 01:43:00,SystemResetWarning,0825.1,5.00,000.00,029.5,027.1,000.0,038.0,031.1,23.7,0000.0,0003.72,0008.16,0003.08
2023-06-15 01:44:00,SystemResetWarning,0825.1,4.99,000.00,029.5,027.3,000.0,038.0,031.1,23.7,0000.0,0003.72,0008.28,0003.08
2023-06-15 01:45:00,SystemResetWarning,0825.1,4.99,000.00,029.5,027.5,000.0,038.0,031.1,23.7,0000.0,0003.72,0008.52,0003.08
2023-06-15 01:46:00,SystemResetWarning,0825.1,5.00,000.00,029.5,027.7,000.0,038.0,031.2,23.7,0000.0,0003.71,0008.54,0003.08
2023-06-15 01:47:00,SystemResetWarning,0825.1,5.00,000.00,029.6,027.8,000.0,038.0,031.2,23.9,0000.0,0003.66,0008.42,0003.08
2023-06-15 01:48:00,SystemResetWarning,0825.1,5.00,000.00,029.6,028.0,000.0,038.1,031.3,24.2,0000.0,0003.65,0008.54,0003.06
2023-06-15 01:49:00,SystemResetWarning,0825.1,5.00,000.00,029.6,028.1,000.0,038.1,031.3,24.7,0000.0,0003.63,0008.63,0003.08
2023-06-15 01:50:00,SystemResetWarning,0825.1,5.00,000.00,029.6,028.2,000.0,038.1,031.3,24.6,0000.0,0003.64,0008.70,0003.09
2023-06-15 01:51:00,SystemResetWarning,0825.1,5.00,000.00,029.7,028.2,000.0,038.1,031.3,24.3,0000.0,0003.66,0008.74,0003.10
2023-06-15 01:52:00,SystemResetWarning,0825.1,4.99,000.00,029.7,028.3,000.0,038.1,031.4,24.5,0000.0,0003.68,0009.09,0003.11
2023-06-15 01:53:00,SystemResetWarning,0825.1,4.99,000.00,029.7,027.8,000.0,038.1,031.4,25.2,0000.0,0003.70,0009.16,0003.11
2023-06-15 01:54:00,SystemResetWarning,0825.1,5.00,000.00,029.7,025.7,000.0,038.1,031.2,25.0,0000.0,0003.70,0009.17,0003.12
2023-06-15 01:55:00,SystemResetWarning,0825.1,5.01,000.00,029.7,025.0,000.0,038.0,031.2,25.2,0000.0,0003.74,0008.94,0003.13
2023-06-15 01:56:00,SystemResetWarning,0825.1,5.02,000.00,029.6,025.2,000.0,038.0,030.9,25.6,0000.0,0003.75,0009.25,0003.13
2023-06-15 01:57:00,SystemResetWarning,0825.1,5.00,000.00,029.5,025.6,000.0,038.0,030.9,25.5,0000.0,0003.74,0009.60,0003.14
2023-06-15 01:58:00,SystemResetWarning,0825.1,5.00,000.00,029.5,026.0,000.0,038.0,030.9,25.2,0000.0,0003.72,0009.80,0003.13
2023-06-15 01:59:00,SystemResetWarning,0825.1,5.00,000.00,029.5,026.4,000.0,038.0,030.9,25.1,0000.0,0003.71,0009.81,0003.14
